Wind_Speed
13 14 19 17 15 17 14 14 11 7 11 11 12 9 11 9 7 8 10 11 10 13 13 14 16 12 11 13 15 16 19 23 23 24 24 25 25 25 22 20 24 30 30 31
13 21 17 16 16 17 17 15 15 14 12 11 13 15 14 12 10 10 11 11 11 10 13 14 17 14 13 16 16 18 22 24 23 25 28 29 26 26 22 19 21 25 30 31
19 3 13 18 17 16 16 16 14 15 9 13 16 21 19 9 10 7 9 10 10 11 12 16 21 16 13 16 19 21 21 22 23 25 28 27 29 26 22 22 20 20 26 31
18 18 11 11 19 16 16 14 14 14 15 20 11 19 12 10 7 9 12 9 10 11 12 15 17 12 14 16 15 17 17 21 23 24 25 24 27 21 26 23 19 17 20 26
15 12 19 17 16 16 15 9 12 14 17 17 16 11 5 11 12 6 7 10 8 11 10 13 12 6 14 10 11 12 15 17 19 18 19 27 20 17 13 16 22 23 21 23
19 11 13 16 14 15 14 12 10 12 15 19 18 20 9 5 5 5 5 7 8 5 9 11 5 4 10 7 7 9 14 16 16 15 16 20 16 13 10 9 11 16 19 22
17 21 13 13 16 15 15 16 15 12 15 15 10 8 12 6 7 4 8 6 6 7 10 10 3 10 10 6 5 9 15 19 19 15 15 19 17 12 12 12 11 14 18 20
19 19 21 18 18 16 21 20 20 12 5 6 10 11 4 7 7 12 8 7 9 7 12 16 15 10 7 5 8 12 16 19 21 17 16 18 16 13 9 3 6 7 12 15
14 17 9 19 17 21 15 24 23 23 18 15 18 6 6 4 10 8 6 9 7 8 17 14 9 11 4 5 14 15 19 23 21 19 16 18 18 9 3 3 2 5 8 10
13 17 12 15 16 19 22 14 19 20 15 12 16 11 5 12 12 9 8 8 9 10 14 10 9 11 6 9 13 15 14 13 18 19 16 17 14 8 8 3 4 5 6 8
19 10 13 13 18 19 19 21 19 23 20 12 12 7 8 8 10 12 10 9 9 10 11 12 12 10 9 11 10 10 5 13 13 18 16 16 11 9 7 6 6 7 8 5
20 16 20 16 15 15 20 19 21 20 17 16 13 12 6 2 8 12 11 11 10 7 11 16 14 6 9 11 10 6 6 10 8 14 16 15 9 7 13 9 6 6 6 5
20 18 18 19 17 15 16 21 22 23 20 14 9 28 13 10 9 11 10 9 11 13 16 15 9 7 11 13 14 18 8 5 8 10 12 13 10 6 3 2 6 7 5 5
16 19 22 20 13 9 20 18 22 20 22 22 16 13 12 15 20 10 8 8 11 11 9 9 9 11 11 14 16 9 5 9 11 11 10 10 11 9 5 1 2 3 4 5
19 19 18 22 13 11 9 17 21 23 24 24 17 21 24 5 8 3 7 10 7 10 12 12 9 6 7 9 8 7 7 11 11 10 11 10 9 9 7 2 2 2 0 0
19 19 19 22 19 14 14 17 18 19 23 23 22 20 12 26 14 7 6 11 10 14 12 10 9 6 5 2 3 8 9 12 11 12 12 9 9 10 9 7 3 2 0 3
21 20 20 21 18 23 19 21 23 23 22 19 16 4 11 13 4 8 9 7 15 12 11 13 13 9 5 6 7 8 12 12 14 15 16 14 12 10 8 10 5 4 1 3
15 21 22 23 19 17 10 9 11 16 20 18 11 6 13 13 11 12 12 18 16 15 14 13 13 12 11 13 13 15 18 20 19 18 20 20 16 12 10 9 8 9 9 9
19 17 22 25 22 19 5 8 5 9 14 20 15 10 16 17 17 15 16 16 18 18 18 17 15 15 16 18 21 21 21 20 21 19 22 22 20 14 12 12 14 13 13 12
22 21 22 22 22 19 20 10 13 11 10 10 12 14 18 20 12 14 14 16 20 20 19 19 19 21 22 23 24 24 23 20 20 21 25 26 19 16 14 12 13 15 15 17
27 26 29 29 25 17 10 11 12 10 6 6 7 12 14 14 19 19 20 19 20 19 18 18 19 22 26 27 27 22 16 20 21 23 23 22 17 17 15 16 15 17 16 20
24 24 28 28 27 28 9 10 10 13 14 8 7 16 22 20 19 20 19 17 16 16 17 19 22 26 27 27 22 18 14 15 16 20 18 17 16 19 18 19 20 19 16 19
23 27 14 4 8 8 15 18 14 17 23 22 8 17 15 14 15 16 16 15 16 16 17 20 24 26 26 21 14 13 10 9 10 13 16 16 17 20 20 20 9 3 12 7
12 11 17 6 9 7 12 11 12 11 12 13 14 13 12 13 14 15 15 15 17 17 18 20 21 19 11 6 6 8 7 8 10 10 11 6 6 11 16 13 13 11 10 10
7 20 14 15 11 10 10 17 15 16 15 15 15 15 15 15 16 16 16 15 15 16 16 15 12 7 5 2 8 8 7 7 6 8 9 6 10 11 9 8 10 12 10 10
11 13 13 17 17 19 18 15 12 10 9 8 8 8 9 9 11 13 13 12 11 12 12 7 5 6 9 5 11 4 8 13 10 4 5 5 5 4 4 6 5 6 6 7
Wind_Direction
226 219 224 228 235 242 268 264 270 240 248 265 258 272 259 232 234 237 232 234 235 225 231 245 255 259 287 298 302 310 310 313 318 310 306 301 298 288 285 278 266 252 236 230
226 231 230 236 235 243 245 249 251 253 247 254 262 268 259 223 227 242 245 240 245 244 222 231 250 260 281 293 303 303 310 321 312 306 305 306 292 286 278 271 265 254 238 230
219 235 230 224 234 235 237 241 248 248 234 256 263 266 252 257 209 228 238 241 245 244 242 231 252 266 278 288 296 310 316 319 315 308 308 305 301 287 274 273 262 255 240 227
235 230 243 223 230 227 239 240 246 249 251 264 211 286 210 224 251 250 257 245 242 241 229 223 261 252 283 302 312 323 327 324 316 311 309 305 303 288 272 257 241 253 246 230
229 227 227 234 228 220 233 240 239 246 248 256 265 251 248 242 260 243 245 244 218 231 231 212 250 274 296 296 322 337 342 338 327 315 308 311 305 312 299 255 246 247 244 233
222 239 225 229 226 224 227 238 241 238 246 247 236 249 278 331 246 344 214 209 206 216 184 208 174 207 282 273 303 344 354 352 345 329 328 342 317 317 313 285 255 233 234 228
232 232 240 222 223 225 210 208 222 219 227 235 173 227 273 281 301 269 220 201 189 194 196 200 251 274 247 261 328 346 349 3 6 354 348 346 339 305 298 285 272 238 224 220
217 222 227 222 215 213 217 219 233 221 280 182 205 235 225 230 266 288 205 188 208 197 229 210 251 218 216 294 328 342 350 4 12 7 5 353 349 321 323 300 273 220 205 210
240 246 232 221 227 214 211 225 232 270 278 269 197 222 204 274 261 242 185 181 205 187 240 206 253 213 212 299 327 314 351 349 8 18 11 0 351 350 282 249 203 198 195 196
238 260 214 225 223 222 226 226 227 236 262 275 238 259 271 179 180 181 176 178 190 186 230 199 190 206 234 309 301 308 339 329 357 24 21 5 17 30 23 122 114 107 151 171
226 235 223 190 210 210 213 224 231 233 231 275 259 236 172 295 173 172 172 173 183 190 192 195 210 240 246 298 284 309 311 335 340 25 29 15 28 44 48 80 86 100 93 112
219 225 242 211 228 226 227 222 228 238 233 263 338 350 115 95 159 160 174 167 175 194 192 232 240 267 272 272 272 270 0 325 6 30 31 24 34 41 63 64 53 31 12 355
212 223 232 242 222 220 234 235 225 230 249 264 148 249 210 246 190 159 176 200 177 199 216 209 225 242 273 265 269 301 355 295 19 31 30 26 22 20 24 118 88 36 30 352
208 216 228 222 248 239 211 234 225 232 239 244 212 269 277 194 161 171 203 234 222 227 218 202 225 263 274 278 288 294 346 345 351 354 8 23 14 4 6 291 264 352 325 300
204 224 232 249 256 257 262 215 227 227 242 254 265 281 250 255 158 262 234 271 219 209 200 209 235 259 280 283 261 257 301 319 310 320 337 348 350 355 336 322 262 287 253 239
219 233 241 253 244 245 243 245 249 249 241 251 273 296 279 136 181 255 248 272 243 217 223 234 246 248 277 300 219 259 280 294 289 296 300 307 310 319 331 311 283 293 93 135
221 228 238 246 239 247 226 239 241 244 251 257 267 222 137 155 200 258 247 240 243 246 222 227 236 246 274 301 303 298 288 296 287 268 276 281 282 288 295 295 280 271 226 166
224 226 238 249 238 237 244 221 248 243 241 252 254 277 225 224 241 262 256 263 254 240 235 228 237 246 267 282 291 295 295 299 289 276 272 277 271 266 263 272 262 250 241 231
230 232 231 247 249 249 223 264 221 241 249 240 230 214 177 225 266 277 275 264 251 252 255 249 253 266 280 294 298 295 293 290 280 272 270 271 268 256 250 244 240 242 241 247
224 227 242 238 237 246 263 186 226 232 248 204 205 196 188 250 258 270 274 264 256 255 255 254 271 283 291 293 292 292 292 278 269 255 248 253 259 247 247 242 245 246 252 253
218 223 228 233 247 246 204 234 245 236 208 190 196 199 199 219 242 253 258 268 263 255 255 270 281 290 295 298 300 296 283 259 253 257 258 260 265 247 246 242 244 250 279 261
221 215 224 226 229 230 220 236 240 235 243 239 170 201 229 258 254 249 252 248 249 257 269 282 292 299 305 308 301 290 274 270 254 250 249 251 250 252 245 249 253 258 258 274
205 220 260 245 208 216 214 225 230 247 254 258 215 254 258 246 244 244 243 249 262 273 285 295 300 303 307 302 288 272 266 263 244 234 235 248 251 244 249 256 205 292 262 266
213 200 238 171 225 231 260 263 258 235 232 241 237 248 247 243 242 245 249 259 269 283 295 301 308 309 300 285 257 238 233 227 230 234 235 229 259 243 253 239 267 268 237 237
232 250 221 225 225 244 235 241 233 247 241 245 247 245 246 248 245 250 260 265 275 288 298 305 307 279 231 186 185 179 190 187 186 181 194 222 225 229 225 250 247 244 251 258
238 258 230 224 247 233 226 225 218 209 196 207 222 229 235 252 253 261 267 274 281 290 301 301 258 212 193 152 143 141 157 153 149 164 180 193 197 220 243 230 232 266 267 280
Height
3161 3165 3164 3166 3167 3166 3165 3164 3164 3166 3168 3168 3166 3166 3165 3166 3168 3168 3169 3168 3168 3168 3170 3168 3166 3166 3165 3164 3162 3161 3159 3157 3156 3154 3153 3151 3149 3147 3146 3143 3143 3142 3146 3149
3163 3160 3162 3164 3164 3165 3165 3165 3165 3165 3166 3167 3165 3163 3161 3160 3163 3165 3165 3167 3166 3166 3167 3167 3165 3163 3163 3162 3161 3159 3156 3154 3152 3150 3147 3145 3142 3141 3140 3139 3137 3137 3139 3143
3158 3158 3158 3160 3161 3162 3162 3163 3162 3163 3163 3164 3163 3159 3156 3155 3157 3161 3163 3164 3164 3165 3164 3163 3161 3162 3162 3161 3159 3157 3155 3151 3149 3146 3142 3139 3136 3133 3133 3133 3133 3131 3133 3137
3154 3155 3155 3157 3157 3160 3159 3160 3162 3162 3162 3158 3157 3153 3153 3154 3154 3155 3159 3160 3161 3161 3160 3161 3159 3161 3162 3160 3158 3156 3153 3149 3146 3142 3137 3133 3129 3125 3124 3124 3126 3127 3128 3131
3151 3151 3152 3153 3154 3157 3158 3158 3160 3160 3159 3158 3155 3155 3148 3150 3150 3150 3154 3158 3159 3158 3158 3157 3157 3161 3160 3158 3156 3154 3151 3148 3143 3138 3134 3129 3125 3121 3118 3118 3120 3122 3124 3126
3147 3147 3148 3150 3152 3154 3156 3158 3159 3158 3157 3152 3150 3149 3144 3147 3150 3149 3153 3155 3156 3155 3156 3154 3156 3158 3158 3156 3153 3151 3148 3145 3140 3135 3132 3126 3123 3119 3117 3116 3116 3117 3119 3122
3143 3143 3145 3147 3149 3151 3153 3155 3153 3152 3147 3140 3143 3147 3146 3147 3147 3150 3153 3153 3155 3154 3154 3153 3155 3157 3156 3153 3152 3150 3147 3143 3137 3133 3129 3125 3119 3117 3115 3114 3114 3114 3117 3120
3136 3137 3139 3141 3144 3146 3148 3149 3144 3139 3133 3133 3143 3140 3141 3144 3145 3146 3148 3152 3153 3154 3151 3150 3150 3156 3153 3152 3151 3149 3146 3142 3136 3131 3127 3124 3120 3116 3114 3113 3114 3114 3115 3118
3131 3132 3134 3136 3140 3143 3143 3145 3145 3141 3138 3134 3136 3133 3136 3138 3141 3142 3145 3149 3150 3153 3148 3148 3147 3154 3150 3150 3150 3149 3145 3143 3137 3131 3127 3124 3119 3116 3114 3114 3114 3115 3116 3118
3131 3130 3129 3133 3136 3138 3138 3141 3143 3141 3137 3132 3129 3130 3129 3133 3138 3140 3143 3145 3147 3149 3146 3147 3149 3148 3148 3147 3148 3147 3144 3142 3137 3132 3128 3125 3121 3119 3117 3116 3116 3117 3117 3119
3129 3131 3126 3130 3132 3132 3135 3136 3137 3134 3132 3128 3125 3123 3127 3126 3136 3137 3140 3142 3144 3146 3145 3146 3145 3144 3147 3146 3146 3144 3142 3141 3138 3133 3130 3127 3124 3122 3120 3119 3120 3120 3121 3122
3126 3127 3125 3125 3128 3129 3129 3131 3134 3131 3132 3130 3130 3133 3129 3133 3135 3135 3136 3139 3142 3145 3147 3142 3143 3144 3146 3145 3144 3143 3141 3141 3138 3134 3132 3130 3128 3127 3125 3125 3125 3124 3125 3124
3122 3124 3123 3123 3124 3126 3126 3126 3128 3131 3132 3129 3137 3131 3127 3122 3131 3132 3133 3135 3139 3141 3141 3144 3144 3144 3144 3144 3143 3140 3137 3141 3137 3135 3133 3132 3131 3129 3128 3127 3126 3126 3124 3125
3117 3119 3119 3113 3117 3117 3120 3123 3123 3126 3126 3123 3126 3123 3123 3119 3122 3122 3127 3132 3134 3136 3139 3140 3141 3141 3142 3141 3140 3140 3140 3139 3138 3136 3134 3133 3132 3131 3130 3129 3128 3127 3126 3125
3118 3118 3117 3114 3115 3117 3115 3118 3121 3121 3123 3121 3119 3121 3126 3115 3128 3122 3124 3128 3132 3134 3136 3138 3139 3140 3138 3138 3139 3139 3139 3139 3137 3136 3134 3133 3133 3132 3131 3130 3129 3129 3128 3127
3114 3115 3115 3112 3112 3113 3115 3116 3116 3116 3118 3118 3117 3117 3115 3105 3124 3123 3123 3126 3129 3131 3134 3136 3137 3137 3137 3137 3137 3139 3138 3137 3136 3135 3133 3132 3132 3131 3131 3130 3130 3129 3129 3128
3111 3112 3113 3109 3109 3110 3110 3112 3114 3115 3116 3117 3118 3120 3117 3122 3118 3120 3122 3125 3127 3130 3132 3133 3135 3135 3135 3135 3135 3134 3133 3134 3133 3132 3131 3130 3129 3129 3129 3129 3129 3129 3129 3129
3107 3110 3110 3106 3107 3107 3104 3105 3109 3109 3113 3114 3116 3116 3115 3117 3117 3119 3121 3122 3125 3127 3129 3130 3131 3132 3132 3132 3131 3131 3130 3129 3128 3127 3126 3126 3126 3127 3127 3127 3128 3128 3128 3127
3105 3106 3106 3106 3102 3103 3103 3105 3108 3110 3112 3113 3116 3116 3116 3111 3115 3117 3119 3120 3121 3124 3125 3127 3127 3128 3128 3127 3127 3126 3125 3124 3122 3122 3123 3122 3122 3123 3124 3124 3125 3126 3126 3127
3101 3104 3104 3102 3099 3099 3102 3099 3103 3106 3110 3111 3113 3115 3111 3109 3113 3114 3116 3117 3118 3120 3121 3123 3124 3124 3123 3122 3121 3120 3119 3117 3117 3116 3117 3117 3119 3121 3122 3122 3123 3123 3124 3124
3094 3097 3097 3098 3096 3097 3096 3099 3102 3107 3111 3107 3111 3112 3111 3109 3109 3110 3111 3113 3114 3116 3118 3119 3119 3118 3117 3116 3113 3111 3110 3109 3110 3110 3112 3114 3117 3116 3118 3119 3120 3120 3121 3121
3087 3090 3090 3091 3091 3095 3092 3097 3102 3100 3101 3103 3106 3104 3102 3105 3106 3107 3107 3109 3111 3113 3114 3114 3113 3111 3109 3107 3105 3104 3104 3104 3105 3106 3109 3111 3113 3114 3115 3116 3116 3117 3118 3117
3079 3083 3083 3082 3083 3085 3089 3093 3094 3096 3098 3100 3102 3101 3101 3102 3103 3104 3105 3106 3107 3108 3108 3108 3107 3105 3103 3101 3099 3099 3100 3102 3102 3104 3106 3107 3108 3109 3110 3112 3113 3111 3113 3114
3076 3079 3080 3078 3082 3083 3085 3088 3089 3092 3095 3096 3097 3098 3099 3100 3101 3101 3102 3103 3103 3103 3103 3102 3101 3099 3098 3097 3097 3098 3099 3100 3101 3102 3104 3104 3106 3106 3107 3108 3109 3109 3111 3110
3075 3073 3077 3080 3080 3081 3083 3084 3084 3088 3091 3093 3094 3096 3097 3097 3098 3099 3099 3100 3099 3098 3098 3098 3098 3097 3097 3097 3097 3097 3098 3099 3100 3101 3103 3104 3104 3104 3105 3106 3107 3108 3108 3107
3073 3078 3078 3076 3078 3080 3077 3080 3083 3086 3087 3089 3091 3092 3094 3095 3096 3096 3096 3096 3096 3095 3096 3096 3096 3096 3097 3097 3097 3099 3099 3100 3102 3103 3104 3104 3104 3104 3105 3106 3106 3107 3107 3107